This is the latest recevied weather packets stored in our database for station/object KD8UTJ. If no packets are shown the sender has not sent any weather packets the latest 10 day(s).
| Time | Temp. | Humidity | Pressure | Rain* | Wind** | Luminosity | Snow |
|---|---|---|---|---|---|---|---|
| 1778110370 | 26.67° C | 62% | 1017.8 hPa | 0 mm | - | 20 W/m² | - |
| 1778110067 | 26.67° C | 59% | 1017.8 hPa | 0 mm | - | 23 W/m² | - |
| 1778109762 | 26.67° C | 61% | 1017.7 hPa | 0 mm | - | 25 W/m² | - |
| 1778109460 | 26.67° C | 61% | 1017.9 hPa | 0 mm | - | 25 W/m² | - |
| 1778109158 | 27.22° C | 61% | 1017.9 hPa | 0 mm | - | 26 W/m² | - |
| 1778108854 | 27.22° C | 64% | 1017.8 hPa | 0 mm | - | 30 W/m² | - |
| 1778108551 | 27.22° C | 63% | 1018 hPa | 0 mm | - | 34 W/m² | - |
| 1778108248 | 27.22° C | 62% | 1017.9 hPa | 0 mm | - | 37 W/m² | - |
| 1778107945 | 27.22° C | 62% | 1017.9 hPa | 0 mm | - | 39 W/m² | - |
| 1778107641 | 27.22° C | 62% | 1017.8 hPa | 0 mm | - | 41 W/m² | - |
| 1778107338 | 27.22° C | 65% | 1017.8 hPa | 0 mm | - | 42 W/m² | - |
| 1778107034 | 27.22° C | 65% | 1017.9 hPa | 0 mm | - | 55 W/m² | - |
| 1778106730 | 27.22° C | 66% | 1018 hPa | 0 mm | - | 51 W/m² | - |
| 1778106428 | 27.22° C | 65% | 1018 hPa | 0 mm | - | 48 W/m² | - |
| 1778106123 | 27.22° C | 65% | 1018 hPa | 0 mm | - | 47 W/m² | - |
| 1778105821 | 27.22° C | 65% | 1018 hPa | 0 mm | - | 54 W/m² | - |
| 1778105519 | 27.22° C | 64% | 1018 hPa | 0 mm | - | 61 W/m² | - |
| 1778105216 | 27.22° C | 64% | 1018 hPa | 0 mm | - | 62 W/m² | - |
| 1778104910 | 27.22° C | 64% | 1018 hPa | 0 mm | - | 64 W/m² | - |
| 1778104608 | 27.22° C | 66% | 1018.1 hPa | 0 mm | - | 61 W/m² | - |
| 1778104303 | 27.22° C | 65% | 1018.2 hPa | 0 mm | - | 92 W/m² | - |
| 1778104000 | 27.78° C | 65% | 1017.9 hPa | 0 mm | - | 103 W/m² | - |
| 1778103698 | 27.22° C | 67% | 1017.9 hPa | 0 mm | - | 194 W/m² | - |
| 1778103396 | 27.22° C | 68% | 1018.2 hPa | 0 mm | - | 122 W/m² | - |
| 1778103092 | 27.78° C | 66% | 1018 hPa | 0 mm | - | 122 W/m² | - |
* Rain latest hour (hover to see other rain measurements)
** Current wind speed in m/s (hover to see current wind gust speed)